Year,Month,Day,Hour,Minute,Value (Times are PST for temperature in C)
2014,09,05,00,00,13.30
2014,09,05,00,01,13.30
2014,09,05,00,02,13.30
2014,09,05,00,03,13.20
2014,09,05,00,04,13.20
2014,09,05,00,05,13.20
2014,09,05,00,06,13.20
2014,09,05,00,07,13.20
2014,09,05,00,08,13.20
2014,09,05,00,09,13.10
2014,09,05,00,10,13.10
2014,09,05,00,11,13.10
2014,09,05,00,12,13.10
2014,09,05,00,13,13.00
2014,09,05,00,14,13.00
2014,09,05,00,15,13.00
2014,09,05,00,16,12.90
2014,09,05,00,17,12.90
2014,09,05,00,18,12.90
2014,09,05,00,19,12.90
2014,09,05,00,20,12.90
2014,09,05,00,21,12.80
2014,09,05,00,22,12.80
2014,09,05,00,23,12.80
2014,09,05,00,24,12.80
2014,09,05,00,25,12.70
2014,09,05,00,26,12.70
2014,09,05,00,27,12.70
2014,09,05,00,28,12.70
2014,09,05,00,29,12.70
2014,09,05,00,30,12.60
2014,09,05,00,31,12.60
2014,09,05,00,32,12.50
2014,09,05,00,33,12.50
2014,09,05,00,34,12.50
2014,09,05,00,35,12.40
2014,09,05,00,36,12.40
2014,09,05,00,37,12.40
2014,09,05,00,38,12.40
2014,09,05,00,39,12.30
2014,09,05,00,40,12.30
2014,09,05,00,41,12.30
2014,09,05,00,42,12.30
2014,09,05,00,43,12.20
2014,09,05,00,44,12.20
2014,09,05,00,45,12.20
2014,09,05,00,46,12.20
2014,09,05,00,47,12.10
2014,09,05,00,48,12.10
2014,09,05,00,49,12.10
2014,09,05,00,50,12.10
2014,09,05,00,51,12.00
2014,09,05,00,52,12.00
2014,09,05,00,53,12.00
2014,09,05,00,54,11.90
2014,09,05,00,55,11.90
2014,09,05,00,56,11.90
2014,09,05,00,57,11.90
2014,09,05,00,58,11.90
2014,09,05,00,59,11.80
2014,09,05,01,00,11.80
2014,09,05,01,01,11.80
2014,09,05,01,02,11.80
2014,09,05,01,03,11.80
2014,09,05,01,04,11.80
2014,09,05,01,05,11.80
2014,09,05,01,06,11.80
2014,09,05,01,07,11.70
2014,09,05,01,08,11.70
2014,09,05,01,09,11.70
2014,09,05,01,10,11.70
2014,09,05,01,11,11.70
2014,09,05,01,12,11.70
2014,09,05,01,13,11.70
2014,09,05,01,14,11.60
2014,09,05,01,15,11.60
2014,09,05,01,16,11.60
2014,09,05,01,17,11.60
2014,09,05,01,18,11.50
2014,09,05,01,19,11.50
2014,09,05,01,20,11.50
2014,09,05,01,21,11.50
2014,09,05,01,22,11.50
2014,09,05,01,23,11.40
2014,09,05,01,24,11.40
2014,09,05,01,25,11.40
2014,09,05,01,26,11.30
2014,09,05,01,27,11.30
2014,09,05,01,28,11.30
2014,09,05,01,29,11.30
2014,09,05,01,30,11.20
2014,09,05,01,31,11.20
2014,09,05,01,32,11.20
2014,09,05,01,33,11.20
2014,09,05,01,34,11.20
2014,09,05,01,35,11.20
2014,09,05,01,36,11.20
2014,09,05,01,37,11.20
2014,09,05,01,38,11.20
2014,09,05,01,39,11.20
2014,09,05,01,40,11.10
2014,09,05,01,41,11.10
2014,09,05,01,42,11.10
2014,09,05,01,43,11.10
2014,09,05,01,44,11.10
2014,09,05,01,45,11.00
2014,09,05,01,46,11.00
2014,09,05,01,47,11.00
2014,09,05,01,48,10.90
2014,09,05,01,49,10.90
2014,09,05,01,50,10.90
2014,09,05,01,51,10.90
2014,09,05,01,52,10.90
2014,09,05,01,53,10.90
2014,09,05,01,54,10.90
2014,09,05,01,55,10.80
2014,09,05,01,56,10.80
2014,09,05,01,57,10.80
2014,09,05,01,58,10.80
2014,09,05,01,59,10.80
2014,09,05,02,00,10.80
2014,09,05,02,01,10.70
2014,09,05,02,02,10.70
2014,09,05,02,03,10.70
2014,09,05,02,04,10.70
2014,09,05,02,05,10.70
2014,09,05,02,06,10.70
2014,09,05,02,07,10.70
2014,09,05,02,08,10.70
2014,09,05,02,09,10.60
2014,09,05,02,10,10.60
2014,09,05,02,11,10.60
2014,09,05,02,12,10.60
2014,09,05,02,13,10.60
2014,09,05,02,14,10.60
2014,09,05,02,15,10.60
2014,09,05,02,16,10.50
2014,09,05,02,17,10.50
2014,09,05,02,18,10.50
2014,09,05,02,19,10.50
2014,09,05,02,20,10.40
2014,09,05,02,21,10.40
2014,09,05,02,22,10.40
2014,09,05,02,23,10.40
2014,09,05,02,24,10.40
2014,09,05,02,25,10.40
2014,09,05,02,26,10.40
2014,09,05,02,27,10.30
2014,09,05,02,28,10.30
2014,09,05,02,29,10.30
2014,09,05,02,30,10.30
2014,09,05,02,31,10.30
2014,09,05,02,32,10.30
2014,09,05,02,33,10.30
2014,09,05,02,34,10.30
2014,09,05,02,35,10.30
2014,09,05,02,36,10.30
2014,09,05,02,37,10.30
2014,09,05,02,38,10.20
2014,09,05,02,39,10.20
2014,09,05,02,40,10.20
2014,09,05,02,41,10.20
2014,09,05,02,42,10.20
2014,09,05,02,43,10.20
2014,09,05,02,44,10.20
2014,09,05,02,45,10.10
2014,09,05,02,46,10.10
2014,09,05,02,47,10.10
2014,09,05,02,48,10.10
2014,09,05,02,49,10.10
2014,09,05,02,50,10.10
2014,09,05,02,51,10.10
2014,09,05,02,52,10.10
2014,09,05,02,53,10.10
2014,09,05,02,54,10.00
2014,09,05,02,55,10.00
2014,09,05,02,56,10.00
2014,09,05,02,57,10.00
2014,09,05,02,58,10.00
2014,09,05,02,59,9.90
2014,09,05,03,00,9.90
2014,09,05,03,01,9.90
2014,09,05,03,02,9.90
2014,09,05,03,03,9.90
2014,09,05,03,04,9.90
2014,09,05,03,05,9.80
2014,09,05,03,06,9.80
2014,09,05,03,07,9.80
2014,09,05,03,08,9.80
2014,09,05,03,09,9.80
2014,09,05,03,10,9.80
2014,09,05,03,11,9.80
2014,09,05,03,12,9.80
2014,09,05,03,13,9.80
2014,09,05,03,14,9.70
2014,09,05,03,15,9.70
2014,09,05,03,16,9.70
2014,09,05,03,17,9.70
2014,09,05,03,18,9.70
2014,09,05,03,19,9.70
2014,09,05,03,20,9.70
2014,09,05,03,21,9.70
2014,09,05,03,22,9.70
2014,09,05,03,23,9.70
2014,09,05,03,24,9.70
2014,09,05,03,25,9.60
2014,09,05,03,26,9.60
2014,09,05,03,27,9.60
2014,09,05,03,28,9.60
2014,09,05,03,29,9.60
2014,09,05,03,30,9.60
2014,09,05,03,31,9.60
2014,09,05,03,32,9.60
2014,09,05,03,33,9.60
2014,09,05,03,34,9.50
2014,09,05,03,35,9.50
2014,09,05,03,36,9.50
2014,09,05,03,37,9.50
2014,09,05,03,38,9.50
2014,09,05,03,39,9.40
2014,09,05,03,40,9.40
2014,09,05,03,41,9.40
2014,09,05,03,42,9.40
2014,09,05,03,43,9.40
2014,09,05,03,44,9.40
2014,09,05,03,45,9.40
2014,09,05,03,46,9.40
2014,09,05,03,47,9.40
2014,09,05,03,48,9.40
2014,09,05,03,49,9.30
2014,09,05,03,50,9.30
2014,09,05,03,51,9.30
2014,09,05,03,52,9.30
2014,09,05,03,53,9.30
2014,09,05,03,54,9.30
2014,09,05,03,55,9.30
2014,09,05,03,56,9.30
2014,09,05,03,57,9.30
2014,09,05,03,58,9.30
2014,09,05,03,59,9.20
2014,09,05,04,00,9.20
2014,09,05,04,01,9.20
2014,09,05,04,02,9.20
2014,09,05,04,03,9.20
2014,09,05,04,04,9.20
2014,09,05,04,05,9.20
2014,09,05,04,06,9.20
2014,09,05,04,07,9.10
2014,09,05,04,08,9.10
2014,09,05,04,09,9.10
2014,09,05,04,10,9.10
2014,09,05,04,11,9.10
2014,09,05,04,12,9.10
2014,09,05,04,13,9.10
2014,09,05,04,14,9.10
2014,09,05,04,15,9.00
2014,09,05,04,16,9.00
2014,09,05,04,17,9.00
2014,09,05,04,18,9.00
2014,09,05,04,19,9.00
2014,09,05,04,20,9.00
2014,09,05,04,21,9.00
2014,09,05,04,22,8.90
2014,09,05,04,23,8.90
2014,09,05,04,24,8.90
2014,09,05,04,25,8.90
2014,09,05,04,26,8.90
2014,09,05,04,27,8.90
2014,09,05,04,28,8.90
2014,09,05,04,29,8.80
2014,09,05,04,30,8.80
2014,09,05,04,31,8.80
2014,09,05,04,32,8.80
2014,09,05,04,33,8.80
2014,09,05,04,34,8.80
2014,09,05,04,35,8.80
2014,09,05,04,36,8.80
2014,09,05,04,37,8.80
2014,09,05,04,38,8.80
2014,09,05,04,39,8.80
2014,09,05,04,40,8.80
2014,09,05,04,41,8.70
2014,09,05,04,42,8.70
2014,09,05,04,43,8.70
2014,09,05,04,44,8.70
2014,09,05,04,45,8.70
2014,09,05,04,46,8.70
2014,09,05,04,47,8.70
2014,09,05,04,48,8.70
2014,09,05,04,49,8.70
2014,09,05,04,50,8.70
2014,09,05,04,51,8.70
2014,09,05,04,52,8.70
2014,09,05,04,53,8.60
2014,09,05,04,54,8.60
2014,09,05,04,55,8.60
2014,09,05,04,56,8.60
2014,09,05,04,57,8.60
2014,09,05,04,58,8.60
2014,09,05,04,59,8.60
2014,09,05,05,00,8.60
2014,09,05,05,01,8.60
2014,09,05,05,02,8.50
2014,09,05,05,03,8.50
2014,09,05,05,04,8.50
2014,09,05,05,05,8.50
2014,09,05,05,06,8.50
2014,09,05,05,07,8.40
2014,09,05,05,08,8.40
2014,09,05,05,09,8.40
2014,09,05,05,10,8.40
2014,09,05,05,11,8.40
2014,09,05,05,12,8.40
2014,09,05,05,13,8.30
2014,09,05,05,14,8.30
2014,09,05,05,15,8.30
2014,09,05,05,16,8.30
2014,09,05,05,17,8.30
2014,09,05,05,18,8.30
2014,09,05,05,19,8.30
2014,09,05,05,20,8.30
2014,09,05,05,21,8.30
2014,09,05,05,22,8.30
2014,09,05,05,23,8.30
2014,09,05,05,24,8.30
2014,09,05,05,25,8.30
2014,09,05,05,26,8.30
2014,09,05,05,27,8.20
2014,09,05,05,28,8.20
2014,09,05,05,29,8.20
2014,09,05,05,30,8.20
2014,09,05,05,31,8.20
2014,09,05,05,32,8.20
2014,09,05,05,33,8.20
2014,09,05,05,34,8.20
2014,09,05,05,35,8.20
2014,09,05,05,36,8.10
2014,09,05,05,37,8.10
2014,09,05,05,38,8.10
2014,09,05,05,39,8.10
2014,09,05,05,40,8.10
2014,09,05,05,41,8.10
2014,09,05,05,42,8.10
2014,09,05,05,43,8.10
2014,09,05,05,44,8.10
2014,09,05,05,45,8.10
2014,09,05,05,46,8.10
2014,09,05,05,47,8.10
2014,09,05,05,48,8.00
2014,09,05,05,49,8.00
2014,09,05,05,50,8.00
2014,09,05,05,51,8.00
2014,09,05,05,52,8.00
2014,09,05,05,53,8.00
2014,09,05,05,54,8.00
2014,09,05,05,55,8.00
2014,09,05,05,56,8.00
2014,09,05,05,57,8.00
2014,09,05,05,58,8.00
2014,09,05,05,59,7.90
2014,09,05,06,00,7.90
2014,09,05,06,01,7.90
2014,09,05,06,02,7.90
2014,09,05,06,03,7.90
2014,09,05,06,04,7.90
2014,09,05,06,05,7.90
2014,09,05,06,06,7.90
2014,09,05,06,07,7.90
2014,09,05,06,08,7.80
2014,09,05,06,09,7.80
2014,09,05,06,10,7.80
2014,09,05,06,11,7.80
2014,09,05,06,12,7.80
2014,09,05,06,13,7.80
2014,09,05,06,14,7.80
2014,09,05,06,15,7.80
2014,09,05,06,16,7.80
2014,09,05,06,17,7.70
2014,09,05,06,18,7.70
2014,09,05,06,19,7.70
2014,09,05,06,20,7.70
2014,09,05,06,21,7.70
2014,09,05,06,22,7.70
2014,09,05,06,23,7.70
2014,09,05,06,24,7.70
2014,09,05,06,25,7.60
2014,09,05,06,26,7.60
2014,09,05,06,27,7.60
2014,09,05,06,28,7.60
2014,09,05,06,29,7.60
2014,09,05,06,30,7.60
2014,09,05,06,31,7.60
2014,09,05,06,32,7.60
2014,09,05,06,33,7.60
2014,09,05,06,34,7.60
2014,09,05,06,35,7.60
2014,09,05,06,36,7.50
2014,09,05,06,37,7.50
2014,09,05,06,38,7.50
2014,09,05,06,39,7.50
2014,09,05,06,40,7.50
2014,09,05,06,41,7.50
2014,09,05,06,42,7.50
2014,09,05,06,43,7.40
2014,09,05,06,44,7.40
2014,09,05,06,45,7.40
2014,09,05,06,46,7.40
2014,09,05,06,47,7.40
2014,09,05,06,48,7.40
2014,09,05,06,49,7.40
2014,09,05,06,50,7.40
2014,09,05,06,51,7.40
2014,09,05,06,52,7.40
2014,09,05,06,53,7.40
2014,09,05,06,54,7.40
2014,09,05,06,55,7.40
2014,09,05,06,56,7.40
2014,09,05,06,57,7.40
2014,09,05,06,58,7.40
2014,09,05,06,59,7.40
2014,09,05,07,00,7.40
2014,09,05,07,01,7.40
2014,09,05,07,02,7.40
2014,09,05,07,03,7.40
2014,09,05,07,04,7.40
2014,09,05,07,05,7.40
2014,09,05,07,06,7.40
2014,09,05,07,07,7.40
2014,09,05,07,08,7.40
2014,09,05,07,09,7.40
2014,09,05,07,10,7.40
2014,09,05,07,11,7.40
2014,09,05,07,12,7.40
2014,09,05,07,13,7.40
2014,09,05,07,14,7.40
2014,09,05,07,15,7.40
2014,09,05,07,16,7.40
2014,09,05,07,17,7.40
2014,09,05,07,18,7.40
2014,09,05,07,19,7.40
2014,09,05,07,20,7.40
2014,09,05,07,21,7.30
2014,09,05,07,22,7.30
2014,09,05,07,23,7.30
2014,09,05,07,24,7.30
2014,09,05,07,25,7.30
2014,09,05,07,26,7.30
2014,09,05,07,27,7.30
2014,09,05,07,28,7.30
2014,09,05,07,29,7.30
2014,09,05,07,30,7.30
2014,09,05,07,31,7.30
2014,09,05,07,32,7.30
2014,09,05,07,33,7.30
2014,09,05,07,34,7.30
2014,09,05,07,35,7.30
2014,09,05,07,36,7.30
2014,09,05,07,37,7.30
2014,09,05,07,38,7.30
2014,09,05,07,39,7.30
2014,09,05,07,40,7.30
2014,09,05,07,41,7.30
2014,09,05,07,42,7.30
2014,09,05,07,43,7.30
2014,09,05,07,44,7.30
2014,09,05,07,45,7.30
2014,09,05,07,46,7.30
2014,09,05,07,47,7.30
2014,09,05,07,48,7.30
2014,09,05,07,49,7.30
2014,09,05,07,50,7.30
2014,09,05,07,51,7.30
2014,09,05,07,52,7.30
2014,09,05,07,53,7.30
2014,09,05,07,54,7.30
2014,09,05,07,55,7.30
2014,09,05,07,56,7.30
2014,09,05,07,57,7.30
2014,09,05,07,58,7.30
2014,09,05,07,59,7.30
2014,09,05,08,00,7.30
2014,09,05,08,01,7.30
2014,09,05,08,02,7.40
2014,09,05,08,03,7.40
2014,09,05,08,04,7.40
2014,09,05,08,05,7.40
2014,09,05,08,06,7.40
2014,09,05,08,07,7.40
2014,09,05,08,08,7.40
2014,09,05,08,09,7.50
2014,09,05,08,10,7.50
2014,09,05,08,11,7.60
2014,09,05,08,12,7.60
2014,09,05,08,13,7.60
2014,09,05,08,14,7.60
2014,09,05,08,15,7.70
2014,09,05,08,16,7.70
2014,09,05,08,17,7.80
2014,09,05,08,18,7.90
2014,09,05,08,19,8.00
2014,09,05,08,20,8.10
2014,09,05,08,21,8.20
2014,09,05,08,22,8.30
2014,09,05,08,23,8.40
2014,09,05,08,24,8.50
2014,09,05,08,25,8.60
2014,09,05,08,26,8.70
2014,09,05,08,27,8.80
2014,09,05,08,28,8.80
2014,09,05,08,29,8.90
2014,09,05,08,30,9.10
2014,09,05,08,31,9.20
2014,09,05,08,32,9.20
2014,09,05,08,33,9.30
2014,09,05,08,34,9.40
2014,09,05,08,35,9.50
2014,09,05,08,36,9.60
2014,09,05,08,37,9.70
2014,09,05,08,38,9.80
2014,09,05,08,39,10.00
2014,09,05,08,40,10.10
2014,09,05,08,41,10.20
2014,09,05,08,42,10.30
2014,09,05,08,43,10.30
2014,09,05,08,44,10.40
2014,09,05,08,45,10.50
2014,09,05,08,46,10.60
2014,09,05,08,47,10.70
2014,09,05,08,48,10.80
2014,09,05,08,49,10.90
2014,09,05,08,50,10.90
2014,09,05,08,51,11.00
2014,09,05,08,52,11.00
2014,09,05,08,53,11.10
2014,09,05,08,54,11.10
2014,09,05,08,55,11.10
2014,09,05,08,56,11.10
2014,09,05,08,57,11.10
2014,09,05,08,58,11.10
2014,09,05,08,59,11.20
2014,09,05,09,00,11.20
2014,09,05,09,01,11.20
2014,09,05,09,02,11.30
2014,09,05,09,03,11.30
2014,09,05,09,04,11.30
2014,09,05,09,05,11.40
2014,09,05,09,06,11.40
2014,09,05,09,07,11.50
2014,09,05,09,08,11.60
2014,09,05,09,09,11.60
2014,09,05,09,10,11.70
2014,09,05,09,11,11.70
2014,09,05,09,12,11.80
2014,09,05,09,13,11.90
2014,09,05,09,14,11.90
2014,09,05,09,15,12.00
2014,09,05,09,16,12.10
2014,09,05,09,17,12.10
2014,09,05,09,18,12.20
2014,09,05,09,19,12.20
2014,09,05,09,20,12.20
2014,09,05,09,21,12.30
2014,09,05,09,22,12.30
2014,09,05,09,23,12.30
2014,09,05,09,24,12.30
2014,09,05,09,25,12.30
2014,09,05,09,26,12.30
2014,09,05,09,27,12.30
2014,09,05,09,28,12.30
2014,09,05,09,29,12.40
2014,09,05,09,30,12.40
2014,09,05,09,31,12.40
2014,09,05,09,32,12.50
2014,09,05,09,33,12.50
2014,09,05,09,34,12.60
2014,09,05,09,35,12.60
2014,09,05,09,36,12.60
2014,09,05,09,37,12.70
2014,09,05,09,38,12.70
2014,09,05,09,39,12.80
2014,09,05,09,40,12.80
2014,09,05,09,41,12.90
2014,09,05,09,42,12.90
2014,09,05,09,43,13.00
2014,09,05,09,44,13.10
2014,09,05,09,45,13.10
2014,09,05,09,46,13.10
2014,09,05,09,47,13.10
2014,09,05,09,48,13.20
2014,09,05,09,49,13.20
2014,09,05,09,50,13.20
2014,09,05,09,51,13.30
2014,09,05,09,52,13.30
2014,09,05,09,53,13.30
2014,09,05,09,54,13.40
2014,09,05,09,55,13.40
2014,09,05,09,56,13.50
2014,09,05,09,57,13.50
2014,09,05,09,58,13.60
2014,09,05,09,59,13.60
2014,09,05,10,00,13.70
2014,09,05,10,01,13.70
2014,09,05,10,02,13.80
2014,09,05,10,03,13.90
2014,09,05,10,04,14.00
2014,09,05,10,05,14.10
2014,09,05,10,06,14.20
2014,09,05,10,07,14.20
2014,09,05,10,08,14.20
2014,09,05,10,09,14.20
2014,09,05,10,10,14.30
2014,09,05,10,11,14.30
2014,09,05,10,12,14.40
2014,09,05,10,13,14.40
2014,09,05,10,14,14.40
2014,09,05,10,15,14.50
2014,09,05,10,16,14.60
2014,09,05,10,17,14.70
2014,09,05,10,18,14.80
2014,09,05,10,19,14.90
2014,09,05,10,20,15.00
2014,09,05,10,21,15.00
2014,09,05,10,22,15.10
2014,09,05,10,23,15.10
2014,09,05,10,24,15.20
2014,09,05,10,25,15.20
2014,09,05,10,26,15.30
2014,09,05,10,27,15.40
2014,09,05,10,28,15.40
2014,09,05,10,29,15.50
2014,09,05,10,30,15.50
2014,09,05,10,31,15.60
2014,09,05,10,32,15.70
2014,09,05,10,33,15.80
2014,09,05,10,34,15.80
2014,09,05,10,35,15.90
2014,09,05,10,36,15.90
2014,09,05,10,37,16.00
2014,09,05,10,38,16.10
2014,09,05,10,39,16.20
2014,09,05,10,40,16.30
2014,09,05,10,41,16.40
2014,09,05,10,42,16.40
2014,09,05,10,43,16.50
2014,09,05,10,44,16.60
2014,09,05,10,45,16.70
2014,09,05,10,46,16.80
2014,09,05,10,47,16.80
2014,09,05,10,48,16.90
2014,09,05,10,49,17.00
2014,09,05,10,50,17.00
2014,09,05,10,51,17.10
2014,09,05,10,52,17.20
2014,09,05,10,53,17.20
2014,09,05,10,54,17.20
2014,09,05,10,55,17.10
2014,09,05,10,56,17.00
2014,09,05,10,57,17.00
2014,09,05,10,58,16.90
2014,09,05,10,59,17.00
2014,09,05,11,00,17.00
2014,09,05,11,01,17.10
2014,09,05,11,02,17.20
2014,09,05,11,03,17.20
2014,09,05,11,04,17.30
2014,09,05,11,05,17.30
2014,09,05,11,06,17.40
2014,09,05,11,07,17.50
2014,09,05,11,08,17.60
2014,09,05,11,09,17.70
2014,09,05,11,10,17.80
2014,09,05,11,11,17.90
2014,09,05,11,12,18.00
2014,09,05,11,13,18.10
2014,09,05,11,14,18.20
2014,09,05,11,15,18.30
2014,09,05,11,16,18.30
2014,09,05,11,17,18.30
2014,09,05,11,18,18.30
2014,09,05,11,19,18.30
2014,09,05,11,20,18.40
2014,09,05,11,21,18.40
2014,09,05,11,22,18.50
2014,09,05,11,23,18.60
2014,09,05,11,24,18.70
2014,09,05,11,25,18.80
2014,09,05,11,26,18.80
2014,09,05,11,27,18.80
2014,09,05,11,28,18.80
2014,09,05,11,29,18.80
2014,09,05,11,30,18.80
2014,09,05,11,31,18.80
2014,09,05,11,32,18.80
2014,09,05,11,33,18.80
2014,09,05,11,34,18.90
2014,09,05,11,35,19.00
2014,09,05,11,36,19.00
2014,09,05,11,37,19.10
2014,09,05,11,38,19.10
2014,09,05,11,39,19.20
2014,09,05,11,40,19.30
2014,09,05,11,41,19.30
2014,09,05,11,42,19.40
2014,09,05,11,43,19.50
2014,09,05,11,44,19.60
2014,09,05,11,45,19.60
2014,09,05,11,46,19.70
2014,09,05,11,47,19.70
2014,09,05,11,48,19.80
2014,09,05,11,49,19.80
2014,09,05,11,50,19.80
2014,09,05,11,51,19.80
2014,09,05,11,52,19.80
2014,09,05,11,53,19.80
2014,09,05,11,54,19.80
2014,09,05,11,55,19.80
2014,09,05,11,56,19.80
2014,09,05,11,57,19.80
2014,09,05,11,58,19.90
2014,09,05,11,59,19.90
2014,09,05,12,00,19.90
2014,09,05,12,01,20.00
2014,09,05,12,02,20.00
2014,09,05,12,03,20.10
2014,09,05,12,04,20.10
2014,09,05,12,05,20.20
2014,09,05,12,06,20.30
2014,09,05,12,07,20.40
2014,09,05,12,08,20.50
2014,09,05,12,09,20.60
2014,09,05,12,10,20.70
2014,09,05,12,11,20.80
2014,09,05,12,12,20.90
2014,09,05,12,13,20.90
2014,09,05,12,14,21.10
2014,09,05,12,15,21.20
2014,09,05,12,16,21.30
2014,09,05,12,17,21.40
2014,09,05,12,18,21.40
2014,09,05,12,19,21.40
2014,09,05,12,20,21.30
2014,09,05,12,21,21.30
2014,09,05,12,22,21.30
2014,09,05,12,23,21.40
2014,09,05,12,24,21.40
2014,09,05,12,25,21.50
2014,09,05,12,26,21.50
2014,09,05,12,27,21.60
2014,09,05,12,28,21.60
2014,09,05,12,29,21.70
2014,09,05,12,30,21.70
2014,09,05,12,31,21.70
2014,09,05,12,32,21.80
2014,09,05,12,33,21.80
2014,09,05,12,34,21.80
2014,09,05,12,35,21.80
2014,09,05,12,36,21.90
2014,09,05,12,37,21.90
2014,09,05,12,38,22.00
2014,09,05,12,39,22.00
2014,09,05,12,40,22.10
2014,09,05,12,41,22.20
2014,09,05,12,42,22.40
2014,09,05,12,43,22.50
2014,09,05,12,44,22.60
2014,09,05,12,45,22.80
2014,09,05,12,46,22.80
2014,09,05,12,47,22.90
2014,09,05,12,48,23.00
2014,09,05,12,49,23.10
2014,09,05,12,50,23.20
2014,09,05,12,51,23.30
2014,09,05,12,52,23.40
2014,09,05,12,53,23.40
2014,09,05,12,54,23.50
2014,09,05,12,55,23.60
2014,09,05,12,56,23.70
2014,09,05,12,57,23.80
2014,09,05,12,58,23.90
2014,09,05,12,59,24.00
2014,09,05,13,00,24.00
2014,09,05,13,01,23.90
2014,09,05,13,02,23.80
2014,09,05,13,03,23.70
2014,09,05,13,04,23.70
2014,09,05,13,05,23.70
2014,09,05,13,06,23.70
2014,09,05,13,07,23.70
2014,09,05,13,08,23.70
2014,09,05,13,09,23.70
2014,09,05,13,10,23.70
2014,09,05,13,11,23.80
2014,09,05,13,12,23.80
2014,09,05,13,13,23.90
2014,09,05,13,14,24.00
2014,09,05,13,15,24.00
2014,09,05,13,16,24.10
2014,09,05,13,17,24.10
2014,09,05,13,18,24.10
2014,09,05,13,19,24.10
2014,09,05,13,20,24.10
2014,09,05,13,21,24.00
2014,09,05,13,22,23.90
2014,09,05,13,23,23.90
2014,09,05,13,24,24.00
2014,09,05,13,25,24.00
2014,09,05,13,26,24.00
2014,09,05,13,27,24.00
2014,09,05,13,28,24.00
2014,09,05,13,29,24.10
2014,09,05,13,30,24.20
2014,09,05,13,31,24.30
2014,09,05,13,32,24.40
2014,09,05,13,33,24.40
2014,09,05,13,34,24.40
2014,09,05,13,35,24.40
2014,09,05,13,36,24.40
2014,09,05,13,37,24.50
2014,09,05,13,38,24.50
2014,09,05,13,39,24.60
2014,09,05,13,40,24.60
2014,09,05,13,41,24.70
2014,09,05,13,42,24.70
2014,09,05,13,43,24.70
2014,09,05,13,44,24.70
2014,09,05,13,45,24.80
2014,09,05,13,46,24.90
2014,09,05,13,47,24.90
2014,09,05,13,48,25.00
2014,09,05,13,49,25.10
2014,09,05,13,50,25.20
2014,09,05,13,51,25.30
2014,09,05,13,52,25.40
2014,09,05,13,53,25.40
2014,09,05,13,54,25.50
2014,09,05,13,55,25.50
2014,09,05,13,56,25.50
2014,09,05,13,57,25.50
2014,09,05,13,58,25.60
2014,09,05,13,59,25.60
2014,09,05,14,00,25.70
2014,09,05,14,01,25.70
2014,09,05,14,02,25.70
2014,09,05,14,03,25.70
2014,09,05,14,04,25.70
2014,09,05,14,05,25.70
2014,09,05,14,06,25.70
2014,09,05,14,07,25.70
2014,09,05,14,08,25.80
2014,09,05,14,09,25.90
2014,09,05,14,10,26.00
2014,09,05,14,11,26.20
2014,09,05,14,12,26.40
2014,09,05,14,13,26.60
2014,09,05,14,14,26.80
2014,09,05,14,15,26.90
2014,09,05,14,16,27.00
2014,09,05,14,17,27.20
2014,09,05,14,18,27.20
2014,09,05,14,19,27.30
2014,09,05,14,20,27.30
2014,09,05,14,21,27.30
2014,09,05,14,22,27.40
2014,09,05,14,23,27.50
2014,09,05,14,24,27.60
2014,09,05,14,25,27.60
2014,09,05,14,26,27.60
2014,09,05,14,27,27.50
2014,09,05,14,28,27.40
2014,09,05,14,29,27.40
2014,09,05,14,30,27.40
2014,09,05,14,31,27.40
2014,09,05,14,32,27.40
2014,09,05,14,33,27.30
2014,09,05,14,34,27.30
2014,09,05,14,35,27.30
2014,09,05,14,36,27.30
2014,09,05,14,37,27.30
2014,09,05,14,38,27.40
2014,09,05,14,39,27.40
2014,09,05,14,40,27.40
2014,09,05,14,41,27.50
2014,09,05,14,42,27.70
2014,09,05,14,43,27.80
2014,09,05,14,44,27.80
2014,09,05,14,45,27.90
2014,09,05,14,46,27.90
2014,09,05,14,47,28.00
2014,09,05,14,48,28.00
2014,09,05,14,49,28.00
2014,09,05,14,50,27.90
2014,09,05,14,51,27.90
2014,09,05,14,52,27.90
2014,09,05,14,53,27.90
2014,09,05,14,54,27.90
2014,09,05,14,55,28.00
2014,09,05,14,56,28.00
2014,09,05,14,57,28.10
2014,09,05,14,58,28.10
2014,09,05,14,59,28.20
2014,09,05,15,00,28.30
2014,09,05,15,01,28.50
2014,09,05,15,02,28.50
2014,09,05,15,03,28.40
2014,09,05,15,04,28.40
2014,09,05,15,05,28.40
2014,09,05,15,06,28.40
2014,09,05,15,07,28.40
2014,09,05,15,08,28.50
2014,09,05,15,09,28.60
2014,09,05,15,10,28.70
2014,09,05,15,11,28.80
2014,09,05,15,12,28.90
2014,09,05,15,13,29.00
2014,09,05,15,14,29.10
2014,09,05,15,15,29.10
2014,09,05,15,16,29.00
2014,09,05,15,17,28.90
2014,09,05,15,18,28.90
2014,09,05,15,19,28.90
2014,09,05,15,20,28.90
2014,09,05,15,21,29.00
2014,09,05,15,22,29.00
2014,09,05,15,23,29.10
2014,09,05,15,24,29.10
2014,09,05,15,25,29.10
2014,09,05,15,26,29.10
2014,09,05,15,27,29.10
2014,09,05,15,28,29.20
2014,09,05,15,29,29.20
2014,09,05,15,30,29.30
2014,09,05,15,31,29.30
2014,09,05,15,32,29.30
2014,09,05,15,33,29.30
2014,09,05,15,34,29.30
2014,09,05,15,35,29.40
2014,09,05,15,36,29.50
2014,09,05,15,37,29.70
2014,09,05,15,38,29.80
2014,09,05,15,39,29.90
2014,09,05,15,40,29.90
2014,09,05,15,41,29.80
2014,09,05,15,42,29.70
2014,09,05,15,43,29.70
2014,09,05,15,44,29.70
2014,09,05,15,45,29.70
2014,09,05,15,46,29.60
2014,09,05,15,47,29.60
2014,09,05,15,48,29.70
2014,09,05,15,49,29.70
2014,09,05,15,50,29.70
2014,09,05,15,51,29.80
2014,09,05,15,52,29.90
2014,09,05,15,53,29.90
2014,09,05,15,54,30.00
2014,09,05,15,55,30.10
2014,09,05,15,56,30.10
2014,09,05,15,57,30.00
2014,09,05,15,58,29.90
2014,09,05,15,59,29.90
2014,09,05,16,00,29.90
2014,09,05,16,01,29.90
2014,09,05,16,02,29.80
2014,09,05,16,03,29.80
2014,09,05,16,04,29.80
2014,09,05,16,05,29.70
2014,09,05,16,06,29.70
2014,09,05,16,07,29.80
2014,09,05,16,08,29.90
2014,09,05,16,09,30.00
2014,09,05,16,10,30.10
2014,09,05,16,11,30.20
2014,09,05,16,12,30.20
2014,09,05,16,13,30.20
2014,09,05,16,14,30.20
2014,09,05,16,15,30.10
2014,09,05,16,16,30.10
2014,09,05,16,17,30.10
2014,09,05,16,18,30.10
2014,09,05,16,19,30.10
2014,09,05,16,20,30.20
2014,09,05,16,21,30.20
2014,09,05,16,22,30.30
2014,09,05,16,23,30.30
2014,09,05,16,24,30.20
2014,09,05,16,25,30.10
2014,09,05,16,26,30.00
2014,09,05,16,27,29.90
2014,09,05,16,28,29.90
2014,09,05,16,29,29.90
2014,09,05,16,30,29.80
2014,09,05,16,31,29.80
2014,09,05,16,32,29.70
2014,09,05,16,33,29.60
2014,09,05,16,34,29.60
2014,09,05,16,35,29.60
2014,09,05,16,36,29.60
2014,09,05,16,37,29.50
2014,09,05,16,38,29.50
2014,09,05,16,39,29.50
2014,09,05,16,40,29.60
2014,09,05,16,41,29.50
2014,09,05,16,42,29.50
2014,09,05,16,43,29.40
2014,09,05,16,44,29.40
2014,09,05,16,45,29.40
2014,09,05,16,46,29.40
2014,09,05,16,47,29.40
2014,09,05,16,48,29.40
2014,09,05,16,49,29.40
2014,09,05,16,50,29.40
2014,09,05,16,51,29.40
2014,09,05,16,52,29.30
2014,09,05,16,53,29.30
2014,09,05,16,54,29.30
2014,09,05,16,55,29.30
2014,09,05,16,56,29.20
2014,09,05,16,57,29.20
2014,09,05,16,58,29.20
2014,09,05,16,59,29.20
2014,09,05,17,00,29.20
2014,09,05,17,01,29.20
2014,09,05,17,02,29.20
2014,09,05,17,03,29.20
2014,09,05,17,04,29.20
2014,09,05,17,05,29.10
2014,09,05,17,06,29.10
2014,09,05,17,07,29.10
2014,09,05,17,08,29.10
2014,09,05,17,09,29.00
2014,09,05,17,10,29.00
2014,09,05,17,11,29.00
2014,09,05,17,12,29.00
2014,09,05,17,13,29.00
2014,09,05,17,14,29.00
2014,09,05,17,15,29.00
2014,09,05,17,16,29.00
2014,09,05,17,17,28.90
2014,09,05,17,18,28.90
2014,09,05,17,19,28.90
2014,09,05,17,20,28.90
2014,09,05,17,21,28.90
2014,09,05,17,22,28.90
2014,09,05,17,23,28.90
2014,09,05,17,24,28.90
2014,09,05,17,25,28.90
2014,09,05,17,26,28.90
2014,09,05,17,27,28.80
2014,09,05,17,28,28.80
2014,09,05,17,29,28.80
2014,09,05,17,30,28.80
2014,09,05,17,31,28.80
2014,09,05,17,32,28.80
2014,09,05,17,33,28.80
2014,09,05,17,34,28.80